contact:dominique.lefevre@mio.osupytheas.fr, maurice.libes@osupytheas.fr, didier.mallarino@osupytheas.fr
Project:EMSO http://www.emso-fr.org/EMSO-France
Depth: 2436.0 m
Title:EMSO Ligure Ouest : Data MII capteur MICROCAT
DateTime_Computer,Latitude,Longitude,Temperature,Conductivity,Pressure,DateTime_Instrument
DateTime_Computer,Latitude,Longitude,degC,S m-1,dbar,DateTime_Instrument
2020-07-09T00:01:31Z,42.805,6.029,13.2966,4.59973,2470.203,2020-7-09T02:02:18Z
2020-07-09T00:04:35Z,42.805,6.029,13.2969,4.59972,2470.203,2020-7-09T02:05:21Z
2020-07-09T00:07:38Z,42.805,6.029,13.2971,4.59972,2470.18,2020-7-09T02:08:24Z
2020-07-09T00:10:41Z,42.805,6.029,13.2971,4.59973,2470.18,2020-7-09T02:11:27Z
2020-07-09T00:13:44Z,42.805,6.029,13.2968,4.59973,2470.203,2020-7-09T02:14:31Z
2020-07-09T00:16:48Z,42.805,6.029,13.2968,4.59972,2470.203,2020-7-09T02:17:34Z
2020-07-09T00:19:51Z,42.805,6.029,13.2968,4.59974,2470.194,2020-7-09T02:20:37Z
2020-07-09T00:22:54Z,42.805,6.029,13.2967,4.59973,2470.203,2020-7-09T02:23:40Z
2020-07-09T00:25:58Z,42.805,6.029,13.2973,4.59973,2470.217,2020-7-09T02:26:44Z
2020-07-09T00:29:01Z,42.805,6.029,13.2967,4.59972,2470.18,2020-7-09T02:29:47Z
2020-07-09T00:32:04Z,42.805,6.029,13.2970,4.59972,2470.217,2020-7-09T02:32:50Z
2020-07-09T00:35:07Z,42.805,6.029,13.2968,4.59973,2470.189,2020-7-09T02:35:54Z
2020-07-09T00:38:10Z,42.805,6.029,13.2968,4.59973,2470.18,2020-7-09T02:38:57Z
2020-07-09T00:41:14Z,42.805,6.029,13.2974,4.59972,2470.194,2020-7-09T02:42:00Z
2020-07-09T00:44:17Z,42.805,6.029,13.2972,4.59972,2470.18,2020-7-09T02:45:03Z
2020-07-09T00:47:20Z,42.805,6.029,13.2968,4.59973,2470.18,2020-7-09T02:48:06Z
2020-07-09T00:50:23Z,42.805,6.029,13.2974,4.59971,2470.156,2020-7-09T02:51:10Z
2020-07-09T00:53:27Z,42.805,6.029,13.2971,4.59976,2470.194,2020-7-09T02:54:13Z
2020-07-09T00:56:30Z,42.805,6.029,13.2968,4.59972,2470.194,2020-7-09T02:57:16Z
2020-07-09T00:59:33Z,42.805,6.029,13.2971,4.59973,2470.156,2020-7-09T03:00:20Z
2020-07-09T01:02:37Z,42.805,6.029,13.2972,4.59974,2470.18,2020-7-09T03:03:23Z
2020-07-09T01:05:40Z,42.805,6.029,13.2971,4.59972,2470.171,2020-7-09T03:06:26Z
2020-07-09T01:08:43Z,42.805,6.029,13.2969,4.59973,2470.133,2020-7-09T03:09:30Z
2020-07-09T01:11:47Z,42.805,6.029,13.2968,4.59973,2470.194,2020-7-09T03:12:33Z
2020-07-09T01:14:50Z,42.805,6.029,13.2968,4.59973,2470.156,2020-7-09T03:15:36Z
2020-07-09T01:17:53Z,42.805,6.029,13.2971,4.59973,2470.18,2020-7-09T03:18:39Z
2020-07-09T01:20:56Z,42.805,6.029,13.2968,4.59971,2470.171,2020-7-09T03:21:42Z
2020-07-09T01:23:59Z,42.805,6.029,13.2969,4.59971,2470.171,2020-7-09T03:24:46Z
2020-07-09T01:27:03Z,42.805,6.029,13.2968,4.59972,2470.18,2020-7-09T03:27:49Z
2020-07-09T01:30:06Z,42.805,6.029,13.2968,4.59971,2470.194,2020-7-09T03:30:52Z
2020-07-09T01:33:09Z,42.805,6.029,13.2968,4.59972,2470.18,2020-7-09T03:33:55Z
2020-07-09T01:36:12Z,42.805,6.029,13.2969,4.59972,2470.171,2020-7-09T03:36:59Z
2020-07-09T01:39:16Z,42.805,6.029,13.2967,4.59973,2470.156,2020-7-09T03:40:02Z
2020-07-09T01:42:19Z,42.805,6.029,13.2971,4.59974,2470.133,2020-7-09T03:43:05Z
2020-07-09T01:45:22Z,42.805,6.029,13.2968,4.59971,2470.124,2020-7-09T03:46:08Z
2020-07-09T01:48:25Z,42.805,6.029,13.2971,4.59973,2470.171,2020-7-09T03:49:12Z
2020-07-09T01:51:29Z,42.805,6.029,13.2970,4.59973,2470.133,2020-7-09T03:52:15Z
2020-07-09T01:54:32Z,42.805,6.029,13.2969,4.59973,2470.194,2020-7-09T03:55:18Z
2020-07-09T01:57:35Z,42.805,6.029,13.2971,4.59974,2470.147,2020-7-09T03:58:21Z
2020-07-09T02:00:38Z,42.805,6.029,13.2971,4.59971,2470.171,2020-7-09T04:01:25Z
2020-07-09T02:03:42Z,42.805,6.029,13.2970,4.59971,2470.171,2020-7-09T04:04:28Z
2020-07-09T02:06:45Z,42.805,6.029,13.2973,4.59975,2470.156,2020-7-09T04:07:31Z
2020-07-09T02:09:48Z,42.805,6.029,13.2968,4.59973,2470.133,2020-7-09T04:10:34Z
2020-07-09T02:12:51Z,42.805,6.029,13.2971,4.59973,2470.147,2020-7-09T04:13:37Z
2020-07-09T02:15:54Z,42.805,6.029,13.2970,4.59974,2470.133,2020-7-09T04:16:41Z
2020-07-09T02:18:58Z,42.805,6.029,13.2973,4.59973,2470.124,2020-7-09T04:19:44Z
2020-07-09T02:22:01Z,42.805,6.029,13.2968,4.59973,2470.147,2020-7-09T04:22:47Z
2020-07-09T02:25:04Z,42.805,6.029,13.2969,4.59973,2470.11,2020-7-09T04:25:50Z
2020-07-09T02:28:07Z,42.805,6.029,13.2971,4.59971,2470.11,2020-7-09T04:28:54Z
2020-07-09T02:31:11Z,42.805,6.029,13.2967,4.59972,2470.11,2020-7-09T04:31:57Z
2020-07-09T02:34:14Z,42.805,6.029,13.2973,4.59972,2470.124,2020-7-09T04:35:00Z
2020-07-09T02:37:17Z,42.805,6.029,13.2971,4.59972,2470.087,2020-7-09T04:38:03Z
2020-07-09T02:40:20Z,42.805,6.029,13.2966,4.59973,2470.11,2020-7-09T04:41:07Z
2020-07-09T02:43:23Z,42.805,6.029,13.2967,4.59973,2470.087,2020-7-09T04:44:10Z
2020-07-09T02:46:27Z,42.805,6.029,13.2969,4.59971,2470.124,2020-7-09T04:47:13Z
2020-07-09T02:49:30Z,42.805,6.029,13.2971,4.59973,2470.124,2020-7-09T04:50:16Z
2020-07-09T02:52:33Z,42.805,6.029,13.2971,4.59975,2470.124,2020-7-09T04:53:19Z
2020-07-09T02:55:36Z,42.805,6.029,13.2967,4.59971,2470.11,2020-7-09T04:56:23Z
2020-07-09T02:58:39Z,42.805,6.029,13.2969,4.59971,2470.063,2020-7-09T04:59:26Z
2020-07-09T03:01:43Z,42.805,6.029,13.2971,4.59972,2470.11,2020-7-09T05:02:29Z
2020-07-09T03:04:46Z,42.805,6.029,13.2970,4.59973,2470.087,2020-7-09T05:05:32Z
2020-07-09T03:07:49Z,42.805,6.029,13.2969,4.59971,2470.087,2020-7-09T05:08:35Z
2020-07-09T03:10:52Z,42.805,6.029,13.2973,4.59974,2470.124,2020-7-09T05:11:39Z
2020-07-09T03:13:56Z,42.805,6.029,13.2968,4.59973,2470.1,2020-7-09T05:14:42Z
2020-07-09T03:16:59Z,42.805,6.029,13.2969,4.59973,2470.11,2020-7-09T05:17:45Z
2020-07-09T03:20:02Z,42.805,6.029,13.2972,4.59972,2470.087,2020-7-09T05:20:48Z
2020-07-09T03:23:05Z,42.805,6.029,13.2972,4.59973,2470.1,2020-7-09T05:23:51Z
2020-07-09T03:26:08Z,42.805,6.029,13.2971,4.59973,2470.11,2020-7-09T05:26:55Z
2020-07-09T03:29:12Z,42.805,6.029,13.2969,4.59972,2470.1,2020-7-09T05:29:58Z
2020-07-09T03:32:15Z,42.805,6.029,13.2971,4.59973,2470.087,2020-7-09T05:33:01Z
2020-07-09T03:35:18Z,42.805,6.029,13.2968,4.59973,2470.124,2020-7-09T05:36:04Z
2020-07-09T03:38:21Z,42.805,6.029,13.2970,4.59972,2470.087,2020-7-09T05:39:08Z
2020-07-09T03:41:25Z,42.805,6.029,13.2974,4.59974,2470.087,2020-7-09T05:42:11Z
2020-07-09T03:44:28Z,42.805,6.029,13.2969,4.59973,2470.1,2020-7-09T05:45:14Z
2020-07-09T03:47:31Z,42.805,6.029,13.2971,4.59973,2470.077,2020-7-09T05:48:17Z
2020-07-09T03:50:34Z,42.805,6.029,13.2971,4.59973,2470.087,2020-7-09T05:51:20Z
2020-07-09T03:53:37Z,42.805,6.029,13.2975,4.59973,2470.1,2020-7-09T05:54:24Z
2020-07-09T03:56:41Z,42.805,6.029,13.2969,4.59971,2470.087,2020-7-09T05:57:27Z
2020-07-09T03:59:44Z,42.805,6.029,13.2967,4.59972,2470.063,2020-7-09T06:00:30Z
2020-07-09T04:02:47Z,42.805,6.029,13.2968,4.59973,2470.063,2020-7-09T06:03:33Z
2020-07-09T04:05:51Z,42.805,6.029,13.2973,4.59972,2470.053,2020-7-09T06:06:37Z
2020-07-09T04:08:54Z,42.805,6.029,13.2971,4.59971,2470.053,2020-7-09T06:09:40Z
2020-07-09T04:11:57Z,42.805,6.029,13.2968,4.59972,2470.087,2020-7-09T06:12:43Z
2020-07-09T04:15:00Z,42.805,6.029,13.2971,4.59971,2470.077,2020-7-09T06:15:47Z
2020-07-09T04:18:04Z,42.805,6.029,13.2971,4.59973,2470.087,2020-7-09T06:18:50Z
2020-07-09T04:21:07Z,42.805,6.029,13.2971,4.59972,2470.063,2020-7-09T06:21:53Z
2020-07-09T04:24:10Z,42.805,6.029,13.2974,4.59975,2470.077,2020-7-09T06:24:56Z
2020-07-09T04:27:13Z,42.805,6.029,13.2968,4.59974,2470.087,2020-7-09T06:28:00Z
2020-07-09T04:30:16Z,42.805,6.029,13.2970,4.59973,2470.087,2020-7-09T06:31:03Z
2020-07-09T04:33:20Z,42.805,6.029,13.2967,4.59972,2470.087,2020-7-09T06:34:06Z
2020-07-09T04:36:23Z,42.805,6.029,13.2967,4.59973,2470.053,2020-7-09T06:37:09Z
2020-07-09T04:39:26Z,42.805,6.029,13.2973,4.59973,2470.1,2020-7-09T06:40:12Z
2020-07-09T04:42:29Z,42.805,6.029,13.2969,4.59973,2470.077,2020-7-09T06:43:16Z
2020-07-09T04:45:33Z,42.805,6.029,13.2970,4.59972,2470.053,2020-7-09T06:46:19Z
2020-07-09T04:48:36Z,42.805,6.029,13.2974,4.59972,2470.1,2020-7-09T06:49:22Z
2020-07-09T04:51:39Z,42.805,6.029,13.2971,4.59975,2470.063,2020-7-09T06:52:25Z
2020-07-09T04:54:42Z,42.805,6.029,13.2975,4.59973,2470.087,2020-7-09T06:55:29Z
2020-07-09T04:57:46Z,42.805,6.029,13.2972,4.59971,2470.087,2020-7-09T06:58:32Z
2020-07-09T05:00:49Z,42.805,6.029,13.2965,4.59974,2470.063,2020-7-09T07:01:35Z
2020-07-09T05:03:52Z,42.805,6.029,13.2969,4.59974,2470.077,2020-7-09T07:04:38Z
2020-07-09T05:06:55Z,42.805,6.029,13.2970,4.59975,2470.04,2020-7-09T07:07:42Z
2020-07-09T05:09:58Z,42.805,6.029,13.2972,4.59973,2470.063,2020-7-09T07:10:45Z
2020-07-09T05:13:02Z,42.805,6.029,13.2969,4.59973,2470.063,2020-7-09T07:13:48Z
2020-07-09T05:16:05Z,42.805,6.029,13.2973,4.59973,2470.077,2020-7-09T07:16:51Z
2020-07-09T05:19:08Z,42.805,6.029,13.2969,4.59973,2470.077,2020-7-09T07:19:54Z
2020-07-09T05:22:11Z,42.805,6.029,13.2972,4.59975,2470.087,2020-7-09T07:22:58Z
2020-07-09T05:25:15Z,42.805,6.029,13.2968,4.59973,2470.063,2020-7-09T07:26:01Z
2020-07-09T05:28:18Z,42.805,6.029,13.2971,4.59975,2470.077,2020-7-09T07:29:04Z
2020-07-09T05:31:21Z,42.805,6.029,13.2969,4.59976,2470.063,2020-7-09T07:32:07Z
2020-07-09T05:34:24Z,42.805,6.029,13.2971,4.59975,2470.077,2020-7-09T07:35:11Z
2020-07-09T05:37:28Z,42.805,6.029,13.2968,4.59973,2470.04,2020-7-09T07:38:14Z
2020-07-09T05:40:31Z,42.805,6.029,13.2969,4.59973,2470.077,2020-7-09T07:41:17Z
2020-07-09T05:43:34Z,42.805,6.029,13.2972,4.59975,2470.1,2020-7-09T07:44:20Z
2020-07-09T05:46:37Z,42.805,6.029,13.2972,4.59973,2470.077,2020-7-09T07:47:23Z
2020-07-09T05:49:40Z,42.805,6.029,13.2970,4.59974,2470.063,2020-7-09T07:50:27Z
2020-07-09T05:52:44Z,42.805,6.029,13.2971,4.59975,2470.1,2020-7-09T07:53:30Z
2020-07-09T05:55:47Z,42.805,6.029,13.2969,4.59974,2470.1,2020-7-09T07:56:33Z
2020-07-09T05:58:50Z,42.805,6.029,13.2972,4.59974,2470.053,2020-7-09T07:59:36Z
2020-07-09T06:01:53Z,42.805,6.029,13.2970,4.59973,2470.063,2020-7-09T08:02:40Z
2020-07-09T06:04:57Z,42.805,6.029,13.2974,4.59972,2470.077,2020-7-09T08:05:43Z
2020-07-09T06:08:00Z,42.805,6.029,13.2971,4.59974,2470.11,2020-7-09T08:08:46Z
2020-07-09T06:11:03Z,42.805,6.029,13.2967,4.59973,2470.087,2020-7-09T08:11:49Z
2020-07-09T06:14:06Z,42.805,6.029,13.2971,4.59973,2470.063,2020-7-09T08:14:52Z
2020-07-09T06:17:09Z,42.805,6.029,13.2969,4.59973,2470.063,2020-7-09T08:17:56Z
2020-07-09T06:20:13Z,42.805,6.029,13.2976,4.59975,2470.1,2020-7-09T08:20:59Z
2020-07-09T06:23:16Z,42.805,6.029,13.2969,4.59975,2470.124,2020-7-09T08:24:02Z
2020-07-09T06:26:19Z,42.805,6.029,13.2972,4.59976,2470.077,2020-7-09T08:27:05Z
2020-07-09T06:29:22Z,42.805,6.029,13.2971,4.59973,2470.087,2020-7-09T08:30:09Z
2020-07-09T06:32:26Z,42.805,6.029,13.2972,4.59973,2470.063,2020-7-09T08:33:12Z
2020-07-09T06:35:29Z,42.805,6.029,13.2970,4.59973,2470.11,2020-7-09T08:36:15Z
2020-07-09T06:38:32Z,42.805,6.029,13.2971,4.59974,2470.1,2020-7-09T08:39:18Z
2020-07-09T06:41:35Z,42.805,6.029,13.2973,4.59975,2470.11,2020-7-09T08:42:22Z
2020-07-09T06:44:39Z,42.805,6.029,13.2973,4.59976,2470.087,2020-7-09T08:45:25Z
2020-07-09T06:47:42Z,42.805,6.029,13.2970,4.59973,2470.087,2020-7-09T08:48:28Z
2020-07-09T06:50:45Z,42.805,6.029,13.2971,4.59973,2470.156,2020-7-09T08:51:31Z
2020-07-09T06:53:48Z,42.805,6.029,13.2972,4.59973,2470.053,2020-7-09T08:54:35Z
2020-07-09T06:56:52Z,42.805,6.029,13.2971,4.59973,2470.1,2020-7-09T08:57:38Z
2020-07-09T06:59:55Z,42.805,6.029,13.2974,4.59975,2470.124,2020-7-09T09:00:41Z
2020-07-09T07:02:58Z,42.805,6.029,13.2971,4.59975,2470.11,2020-7-09T09:03:44Z
2020-07-09T07:06:01Z,42.805,6.029,13.2973,4.59980,2470.11,2020-7-09T09:06:47Z
2020-07-09T07:09:04Z,42.805,6.029,13.2968,4.59978,2470.087,2020-7-09T09:09:51Z
2020-07-09T07:12:07Z,42.805,6.029,13.2972,4.59978,2470.077,2020-7-09T09:12:54Z
2020-07-09T07:15:11Z,42.805,6.029,13.2971,4.59976,2470.11,2020-7-09T09:15:57Z
2020-07-09T07:18:14Z,42.805,6.029,13.2971,4.59975,2470.124,2020-7-09T09:19:00Z
2020-07-09T07:21:17Z,42.805,6.029,13.2970,4.59978,2470.11,2020-7-09T09:22:04Z
2020-07-09T07:24:20Z,42.805,6.029,13.2969,4.59978,2470.11,2020-7-09T09:25:07Z
2020-07-09T07:27:24Z,42.805,6.029,13.2972,4.59978,2470.124,2020-7-09T09:28:10Z
2020-07-09T07:30:27Z,42.805,6.029,13.2969,4.59975,2470.124,2020-7-09T09:31:13Z
2020-07-09T07:33:30Z,42.805,6.029,13.2974,4.59978,2470.11,2020-7-09T09:34:16Z
2020-07-09T07:36:33Z,42.805,6.029,13.2976,4.59978,2470.11,2020-7-09T09:37:20Z
2020-07-09T07:39:37Z,42.805,6.029,13.2974,4.59976,2470.077,2020-7-09T09:40:23Z
2020-07-09T07:42:40Z,42.805,6.029,13.2971,4.59977,2470.11,2020-7-09T09:43:26Z
2020-07-09T07:45:43Z,42.805,6.029,13.2971,4.59978,2470.11,2020-7-09T09:46:29Z
2020-07-09T07:48:47Z,42.805,6.029,13.2968,4.59978,2470.147,2020-7-09T09:49:33Z
2020-07-09T07:51:50Z,42.805,6.029,13.2972,4.59976,2470.11,2020-7-09T09:52:36Z
2020-07-09T07:54:53Z,42.805,6.029,13.2974,4.59979,2470.124,2020-7-09T09:55:39Z
2020-07-09T07:57:56Z,42.805,6.029,13.2972,4.59976,2470.124,2020-7-09T09:58:43Z
2020-07-09T08:01:00Z,42.805,6.029,13.2974,4.59978,2470.171,2020-7-09T10:01:46Z
2020-07-09T08:04:03Z,42.805,6.029,13.2976,4.59981,2470.171,2020-7-09T10:04:49Z
2020-07-09T08:07:06Z,42.805,6.029,13.2973,4.59978,2470.156,2020-7-09T10:07:52Z
2020-07-09T08:10:09Z,42.805,6.029,13.2975,4.59978,2470.156,2020-7-09T10:10:56Z
2020-07-09T08:13:12Z,42.805,6.029,13.2973,4.59978,2470.156,2020-7-09T10:13:59Z
2020-07-09T08:16:16Z,42.805,6.029,13.2974,4.59976,2470.096,2020-7-09T10:17:02Z
2020-07-09T08:19:19Z,42.805,6.029,13.2975,4.59978,2470.194,2020-7-09T10:20:05Z
2020-07-09T08:22:22Z,42.805,6.029,13.2971,4.59977,2470.156,2020-7-09T10:23:08Z
2020-07-09T08:25:25Z,42.805,6.029,13.2974,4.59983,2470.133,2020-7-09T10:26:12Z
2020-07-09T08:28:29Z,42.805,6.029,13.2971,4.59978,2470.133,2020-7-09T10:29:15Z
2020-07-09T08:31:32Z,42.805,6.029,13.2969,4.59978,2470.147,2020-7-09T10:32:18Z
2020-07-09T08:34:35Z,42.805,6.029,13.2971,4.59979,2470.171,2020-7-09T10:35:21Z
2020-07-09T08:37:38Z,42.805,6.029,13.2971,4.59976,2470.147,2020-7-09T10:38:24Z
2020-07-09T08:40:41Z,42.805,6.029,13.2971,4.59979,2470.156,2020-7-09T10:41:28Z
2020-07-09T08:43:45Z,42.805,6.029,13.2973,4.59976,2470.147,2020-7-09T10:44:31Z
2020-07-09T08:46:48Z,42.805,6.029,13.2973,4.59976,2470.171,2020-7-09T10:47:34Z
2020-07-09T08:49:51Z,42.805,6.029,13.2971,4.59979,2470.11,2020-7-09T10:50:38Z
2020-07-09T08:52:54Z,42.805,6.029,13.2976,4.59981,2470.18,2020-7-09T10:53:41Z
2020-07-09T08:55:58Z,42.805,6.029,13.2968,4.59980,2470.156,2020-7-09T10:56:44Z
2020-07-09T08:59:01Z,42.805,6.029,13.2972,4.59978,2470.171,2020-7-09T10:59:47Z
2020-07-09T09:02:04Z,42.805,6.029,13.2974,4.59977,2470.133,2020-7-09T11:02:50Z
2020-07-09T09:05:07Z,42.805,6.029,13.2971,4.59976,2470.156,2020-7-09T11:05:54Z
2020-07-09T09:08:11Z,42.805,6.029,13.2971,4.59978,2470.171,2020-7-09T11:08:57Z
2020-07-09T09:11:14Z,42.805,6.029,13.2970,4.59978,2470.133,2020-7-09T11:12:00Z
2020-07-09T09:14:17Z,42.805,6.029,13.2974,4.59978,2470.156,2020-7-09T11:15:03Z
2020-07-09T09:17:20Z,42.805,6.029,13.2972,4.59976,2470.133,2020-7-09T11:18:07Z
2020-07-09T09:20:24Z,42.805,6.029,13.2971,4.59978,2470.156,2020-7-09T11:21:10Z
2020-07-09T09:23:27Z,42.805,6.029,13.2974,4.59980,2470.156,2020-7-09T11:24:13Z
2020-07-09T09:26:30Z,42.805,6.029,13.2975,4.59979,2470.147,2020-7-09T11:27:16Z
2020-07-09T09:29:33Z,42.805,6.029,13.2973,4.59980,2470.171,2020-7-09T11:30:20Z
2020-07-09T09:32:37Z,42.805,6.029,13.2973,4.59981,2470.147,2020-7-09T11:33:23Z
2020-07-09T09:35:40Z,42.805,6.029,13.2973,4.59979,2470.156,2020-7-09T11:36:26Z
2020-07-09T09:38:43Z,42.805,6.029,13.2974,4.59978,2470.171,2020-7-09T11:39:29Z
2020-07-09T09:41:46Z,42.805,6.029,13.2973,4.59977,2470.171,2020-7-09T11:42:33Z
2020-07-09T09:44:50Z,42.805,6.029,13.2972,4.59978,2470.156,2020-7-09T11:45:36Z
2020-07-09T09:47:53Z,42.805,6.029,13.2968,4.59978,2470.133,2020-7-09T11:48:39Z
2020-07-09T09:50:56Z,42.805,6.029,13.2972,4.59976,2470.156,2020-7-09T11:51:42Z
2020-07-09T09:53:59Z,42.805,6.029,13.2969,4.59978,2470.156,2020-7-09T11:54:46Z
2020-07-09T09:57:03Z,42.805,6.029,13.2969,4.59978,2470.133,2020-7-09T11:57:49Z
2020-07-09T10:00:06Z,42.805,6.029,13.2974,4.59976,2470.156,2020-7-09T12:00:52Z
2020-07-09T10:03:09Z,42.805,6.029,13.2971,4.59978,2470.156,2020-7-09T12:03:55Z
2020-07-09T10:06:12Z,42.805,6.029,13.2973,4.59976,2470.147,2020-7-09T12:06:59Z
2020-07-09T10:09:16Z,42.805,6.029,13.2976,4.59976,2470.133,2020-7-09T12:10:02Z
2020-07-09T10:12:19Z,42.805,6.029,13.2974,4.59976,2470.171,2020-7-09T12:13:05Z
2020-07-09T10:15:22Z,42.805,6.029,13.2971,4.59978,2470.11,2020-7-09T12:16:08Z
2020-07-09T10:18:25Z,42.805,6.029,13.2982,4.59976,2470.171,2020-7-09T12:19:11Z
2020-07-09T10:21:28Z,42.805,6.029,13.2971,4.59976,2470.133,2020-7-09T12:22:15Z
2020-07-09T10:24:32Z,42.805,6.029,13.2971,4.59976,2470.133,2020-7-09T12:25:18Z
2020-07-09T10:27:35Z,42.805,6.029,13.2970,4.59977,2470.133,2020-7-09T12:28:21Z
2020-07-09T10:30:38Z,42.805,6.029,13.2967,4.59976,2470.133,2020-7-09T12:31:24Z
2020-07-09T10:33:41Z,42.805,6.029,13.2972,4.59978,2470.156,2020-7-09T12:34:28Z
2020-07-09T10:36:45Z,42.805,6.029,13.2968,4.59976,2470.124,2020-7-09T12:37:31Z
2020-07-09T10:39:48Z,42.805,6.029,13.2976,4.59978,2470.11,2020-7-09T12:40:34Z
2020-07-09T10:42:51Z,42.805,6.029,13.2977,4.59978,2470.147,2020-7-09T12:43:37Z
2020-07-09T10:45:54Z,42.805,6.029,13.2972,4.59976,2470.133,2020-7-09T12:46:41Z
2020-07-09T10:48:58Z,42.805,6.029,13.2975,4.59977,2470.11,2020-7-09T12:49:44Z
2020-07-09T10:52:01Z,42.805,6.029,13.2973,4.59978,2470.11,2020-7-09T12:52:47Z
2020-07-09T10:55:04Z,42.805,6.029,13.2974,4.59976,2470.124,2020-7-09T12:55:51Z
2020-07-09T10:58:07Z,42.805,6.029,13.2976,4.59976,2470.133,2020-7-09T12:58:54Z
2020-07-09T11:01:11Z,42.805,6.029,13.2973,4.59976,2470.147,2020-7-09T13:01:57Z
2020-07-09T11:04:14Z,42.805,6.029,13.2974,4.59978,2470.124,2020-7-09T13:05:00Z
2020-07-09T11:07:17Z,42.805,6.029,13.2971,4.59977,2470.1,2020-7-09T13:08:03Z
2020-07-09T11:10:20Z,42.805,6.029,13.2971,4.59978,2470.124,2020-7-09T13:11:07Z
2020-07-09T11:13:24Z,42.805,6.029,13.2969,4.59978,2470.133,2020-7-09T13:14:10Z
2020-07-09T11:16:27Z,42.805,6.029,13.2973,4.59977,2470.11,2020-7-09T13:17:13Z
2020-07-09T11:19:30Z,42.805,6.029,13.2971,4.59976,2470.11,2020-7-09T13:20:16Z
2020-07-09T11:22:33Z,42.805,6.029,13.2974,4.59978,2470.11,2020-7-09T13:23:20Z
2020-07-09T11:25:37Z,42.805,6.029,13.2973,4.59976,2470.11,2020-7-09T13:26:23Z
2020-07-09T11:28:40Z,42.805,6.029,13.2974,4.59976,2470.124,2020-7-09T13:29:26Z
2020-07-09T11:31:43Z,42.805,6.029,13.2971,4.59977,2470.087,2020-7-09T13:32:29Z
2020-07-09T11:34:46Z,42.805,6.029,13.2971,4.59976,2470.11,2020-7-09T13:35:32Z
2020-07-09T11:37:49Z,42.805,6.029,13.2975,4.59976,2470.147,2020-7-09T13:38:36Z
2020-07-09T11:40:53Z,42.805,6.029,13.2974,4.59976,2470.133,2020-7-09T13:41:39Z
2020-07-09T11:43:56Z,42.805,6.029,13.2974,4.59978,2470.087,2020-7-09T13:44:42Z
2020-07-09T11:46:59Z,42.805,6.029,13.2973,4.59978,2470.133,2020-7-09T13:47:45Z
2020-07-09T11:50:02Z,42.805,6.029,13.2976,4.59978,2470.11,2020-7-09T13:50:49Z
2020-07-09T11:53:06Z,42.805,6.029,13.2974,4.59978,2470.087,2020-7-09T13:53:52Z
2020-07-09T11:56:09Z,42.805,6.029,13.2974,4.59980,2470.11,2020-7-09T13:56:55Z
2020-07-09T11:59:12Z,42.805,6.029,13.2973,4.59978,2470.063,2020-7-09T13:59:58Z
2020-07-09T12:02:15Z,42.805,6.029,13.2973,4.59976,2470.087,2020-7-09T14:03:02Z
2020-07-09T12:05:18Z,42.805,6.029,13.2969,4.59976,2470.1,2020-7-09T14:06:05Z
2020-07-09T12:08:22Z,42.805,6.029,13.2971,4.59976,2470.087,2020-7-09T14:09:08Z
2020-07-09T12:11:25Z,42.805,6.029,13.2968,4.59978,2470.087,2020-7-09T14:12:11Z
2020-07-09T12:14:28Z,42.805,6.029,13.2973,4.59977,2470.11,2020-7-09T14:15:15Z
2020-07-09T12:17:31Z,42.805,6.029,13.2971,4.59976,2470.1,2020-7-09T14:18:18Z
2020-07-09T12:20:35Z,42.805,6.029,13.2973,4.59978,2470.087,2020-7-09T14:21:21Z
2020-07-09T12:23:38Z,42.805,6.029,13.2974,4.59976,2470.1,2020-7-09T14:24:24Z
2020-07-09T12:26:41Z,42.805,6.029,13.2973,4.59976,2470.087,2020-7-09T14:27:27Z
2020-07-09T12:29:44Z,42.805,6.029,13.2971,4.59976,2470.087,2020-7-09T14:30:31Z
2020-07-09T12:32:48Z,42.805,6.029,13.2971,4.59976,2470.1,2020-7-09T14:33:34Z
2020-07-09T12:35:51Z,42.805,6.029,13.2974,4.59977,2470.087,2020-7-09T14:36:37Z
2020-07-09T12:38:54Z,42.805,6.029,13.2975,4.59977,2470.063,2020-7-09T14:39:41Z
2020-07-09T12:41:58Z,42.805,6.029,13.2973,4.59978,2470.11,2020-7-09T14:42:44Z
2020-07-09T12:45:01Z,42.805,6.029,13.2974,4.59978,2470.087,2020-7-09T14:45:47Z
2020-07-09T12:48:04Z,42.805,6.029,13.2974,4.59978,2470.1,2020-7-09T14:48:50Z
2020-07-09T12:51:07Z,42.805,6.029,13.2976,4.59976,2470.1,2020-7-09T14:51:54Z
2020-07-09T12:54:11Z,42.805,6.029,13.2971,4.59976,2470.063,2020-7-09T14:54:57Z
2020-07-09T12:57:14Z,42.805,6.029,13.2974,4.59978,2470.077,2020-7-09T14:58:00Z
2020-07-09T13:00:17Z,42.805,6.029,13.2973,4.59976,2470.053,2020-7-09T15:01:04Z
2020-07-09T13:03:21Z,42.805,6.029,13.2975,4.59976,2470.017,2020-7-09T15:04:07Z
2020-07-09T13:06:24Z,42.805,6.029,13.2973,4.59976,2470.077,2020-7-09T15:07:10Z
2020-07-09T13:09:27Z,42.805,6.029,13.2976,4.59976,2470.063,2020-7-09T15:10:13Z
2020-07-09T13:12:30Z,42.805,6.029,13.2972,4.59978,2470.063,2020-7-09T15:13:17Z
2020-07-09T13:15:33Z,42.805,6.029,13.2974,4.59978,2470.063,2020-7-09T15:16:20Z
2020-07-09T13:18:37Z,42.805,6.029,13.2974,4.59976,2470.063,2020-7-09T15:19:23Z
2020-07-09T13:21:40Z,42.805,6.029,13.2974,4.59976,2470.04,2020-7-09T15:22:26Z
2020-07-09T13:24:43Z,42.805,6.029,13.2973,4.59978,2470.077,2020-7-09T15:25:29Z
2020-07-09T13:27:46Z,42.805,6.029,13.2977,4.59977,2470.063,2020-7-09T15:28:33Z
2020-07-09T13:30:50Z,42.805,6.029,13.2973,4.59977,2470.063,2020-7-09T15:31:36Z
2020-07-09T13:33:53Z,42.805,6.029,13.2974,4.59975,2470.077,2020-7-09T15:34:39Z
2020-07-09T13:36:56Z,42.805,6.029,13.2972,4.59976,2470.04,2020-7-09T15:37:42Z
2020-07-09T13:39:59Z,42.805,6.029,13.2976,4.59978,2470.077,2020-7-09T15:40:46Z
2020-07-09T13:43:03Z,42.805,6.029,13.2968,4.59976,2470.04,2020-7-09T15:43:49Z
2020-07-09T13:46:06Z,42.805,6.029,13.2975,4.59976,2470.04,2020-7-09T15:46:52Z
2020-07-09T13:49:09Z,42.805,6.029,13.2974,4.59976,2470.077,2020-7-09T15:49:56Z
2020-07-09T13:52:13Z,42.805,6.029,13.2971,4.59976,2470.063,2020-7-09T15:52:59Z
2020-07-09T13:55:16Z,42.805,6.029,13.2974,4.59975,2470.077,2020-7-09T15:56:02Z
2020-07-09T13:58:19Z,42.805,6.029,13.2974,4.59976,2470.077,2020-7-09T15:59:05Z
2020-07-09T14:01:22Z,42.805,6.029,13.2974,4.59976,2470.04,2020-7-09T16:02:09Z
2020-07-09T14:04:26Z,42.805,6.029,13.2974,4.59976,2470.087,2020-7-09T16:05:12Z
2020-07-09T14:07:29Z,42.805,6.029,13.2974,4.59976,2470.063,2020-7-09T16:08:15Z
2020-07-09T14:10:32Z,42.805,6.029,13.2974,4.59975,2470.04,2020-7-09T16:11:19Z
2020-07-09T14:13:35Z,42.805,6.029,13.2973,4.59975,2470.04,2020-7-09T16:14:22Z
2020-07-09T14:16:39Z,42.805,6.029,13.2976,4.59975,2470.063,2020-7-09T16:17:25Z
2020-07-09T14:19:42Z,42.805,6.029,13.2976,4.59975,2470.063,2020-7-09T16:20:28Z
2020-07-09T14:22:45Z,42.805,6.029,13.2974,4.59976,2470.017,2020-7-09T16:23:31Z
2020-07-09T14:25:48Z,42.805,6.029,13.2976,4.59976,2470.053,2020-7-09T16:26:35Z
2020-07-09T14:28:52Z,42.805,6.029,13.2971,4.59975,2470.063,2020-7-09T16:29:38Z
2020-07-09T14:31:55Z,42.805,6.029,13.2975,4.59976,2470.063,2020-7-09T16:32:41Z
2020-07-09T14:34:58Z,42.805,6.029,13.2971,4.59976,2470.04,2020-7-09T16:35:44Z
2020-07-09T14:38:01Z,42.805,6.029,13.2974,4.59975,2470.017,2020-7-09T16:38:48Z
2020-07-09T14:41:05Z,42.805,6.029,13.2972,4.59976,2470.03,2020-7-09T16:41:51Z
2020-07-09T14:44:08Z,42.805,6.029,13.2975,4.59975,2470.017,2020-7-09T16:44:54Z
2020-07-09T14:47:11Z,42.805,6.029,13.2971,4.59976,2470.017,2020-7-09T16:47:57Z
2020-07-09T14:50:14Z,42.805,6.029,13.2971,4.59975,2470.053,2020-7-09T16:51:00Z
2020-07-09T14:53:17Z,42.805,6.029,13.2975,4.59976,2470.053,2020-7-09T16:54:04Z
2020-07-09T14:56:21Z,42.805,6.029,13.2972,4.59976,2470.053,2020-7-09T16:57:07Z
2020-07-09T14:59:24Z,42.805,6.029,13.2973,4.59976,2470.017,2020-7-09T17:00:10Z
2020-07-09T15:02:27Z,42.805,6.029,13.2976,4.59975,2470.053,2020-7-09T17:03:14Z
2020-07-09T15:05:31Z,42.805,6.029,13.2975,4.59976,2470.04,2020-7-09T17:06:17Z
2020-07-09T15:08:34Z,42.805,6.029,13.2974,4.59975,2470.017,2020-7-09T17:09:20Z
2020-07-09T15:11:37Z,42.805,6.029,13.2974,4.59975,2470.053,2020-7-09T17:12:23Z
2020-07-09T15:14:40Z,42.805,6.029,13.2974,4.59976,2470.017,2020-7-09T17:15:26Z